Time,TemperatureF,DewpointF,PressureIn,WindDirection,WindDirectionDegrees,WindSpeedMPH,WindSpeedGustMPH,Humidity,HourlyPrecipIn,Conditions,Clouds,dailyrainin,SoftwareType,DateUTC
2013-10-13 00:22:00,58.0,38.0,29.86,SSW,203,0.0,0.0,47,0.00,,,0.00,,2013-10-13 07:22:00,
2013-10-13 00:52:00,58.0,38.0,29.86,SSW,203,0.0,0.0,47,0.00,,,0.00,,2013-10-13 07:52:00,
2013-10-13 01:02:00,58.0,38.0,29.86,SSW,203,0.0,0.0,47,0.00,,,0.00,,2013-10-13 08:02:00,
2013-10-13 01:12:00,58.0,38.0,29.86,SSW,203,0.0,0.0,47,0.00,,,0.00,,2013-10-13 08:12:00,
2013-10-13 08:12:00,46.0,36.0,29.92,SE,135,0.0,0.0,67,0.00,,,0.00,,2013-10-13 15:12:00,
2013-10-13 08:22:00,46.0,36.0,29.93,SE,135,0.0,0.0,67,0.00,,,0.00,,2013-10-13 15:22:00,
2013-10-13 08:33:00,46.0,36.0,29.93,SE,135,0.0,0.0,67,0.00,,,0.00,,2013-10-13 15:33:00,
2013-10-13 08:54:00,47.0,38.0,29.94,NNE,23,0.0,0.0,70,0.00,,,0.00,,2013-10-13 15:54:00,
2013-10-13 09:12:00,47.0,38.0,29.94,NNE,23,0.0,0.0,70,0.00,,,0.00,,2013-10-13 16:12:00,
2013-10-13 09:23:00,50.0,41.0,29.95,NNE,23,0.0,0.0,71,0.00,,,0.00,,2013-10-13 16:23:00,
2013-10-13 09:42:00,52.0,43.0,29.95,NNW,338,0.0,0.0,72,0.00,,,0.00,,2013-10-13 16:42:00,
2013-10-13 09:54:00,52.0,43.0,29.96,North,0,1.0,1.0,71,0.00,,,0.00,,2013-10-13 16:54:00,
2013-10-13 10:12:00,53.0,44.0,29.95,WSW,248,0.0,1.0,71,0.00,,,0.00,,2013-10-13 17:12:00,
2013-10-13 10:22:00,53.0,44.0,29.95,WSW,248,0.0,1.0,71,0.00,,,0.00,,2013-10-13 17:22:00,
2013-10-13 10:52:00,59.0,46.0,29.96,WSW,248,4.0,5.0,61,0.00,,,0.00,,2013-10-13 17:52:00,
2013-10-13 11:12:00,60.0,45.0,29.96,WSW,248,3.0,6.0,57,0.00,,,0.00,,2013-10-13 18:12:00,
2013-10-13 11:21:00,60.0,45.0,29.96,WSW,248,3.0,6.0,57,0.00,,,0.00,,2013-10-13 18:21:00,
2013-10-13 11:42:00,62.0,46.0,29.96,NW,315,3.0,4.0,55,0.00,,,0.00,,2013-10-13 18:42:00,
2013-10-13 11:52:00,62.0,44.0,29.96,NNW,338,7.0,7.0,51,0.00,,,0.00,,2013-10-13 18:52:00,
2013-10-13 12:11:00,63.0,44.0,29.95,SE,141,2.0,5.0,50,0.00,,,0.00,,2013-10-13 19:11:00,
2013-10-13 12:21:00,65.0,44.0,29.95,ESE,115,4.0,4.0,47,0.00,,,0.00,,2013-10-13 19:21:00,
2013-10-13 12:42:00,68.0,44.0,29.96,NW,323,2.0,5.0,42,0.00,,,0.00,,2013-10-13 19:42:00,
2013-10-13 12:52:00,69.0,44.0,29.95,South,180,4.0,5.0,40,0.00,,,0.00,,2013-10-13 19:52:00,
2013-10-13 13:22:00,73.0,42.0,29.95,South,184,5.0,6.0,33,0.00,,,0.00,,2013-10-13 20:22:00,
2013-10-13 13:32:00,73.0,42.0,29.95,South,184,5.0,6.0,33,0.00,,,0.00,,2013-10-13 20:32:00,
2013-10-13 13:43:00,73.0,42.0,29.95,South,184,5.0,6.0,33,0.00,,,0.00,,2013-10-13 20:43:00,
2013-10-13 13:52:00,76.0,42.0,29.94,ESE,113,2.0,2.0,30,0.00,,,0.00,,2013-10-13 20:52:00,
2013-10-13 16:52:00,81.0,35.0,29.93,East,90,2.0,2.0,19,0.00,,,0.00,,2013-10-13 23:52:00,
2013-10-13 17:12:00,78.0,32.0,29.94,NNW,338,2.0,2.0,19,0.00,,,0.00,,2013-10-14 00:12:00,
2013-10-13 17:21:00,78.0,32.0,29.94,NNW,338,2.0,2.0,19,0.00,,,0.00,,2013-10-14 00:21:00,
2013-10-13 17:42:00,76.0,36.0,29.94,NW,315,1.0,6.0,23,0.00,,,0.00,,2013-10-14 00:42:00,
2013-10-13 17:52:00,75.0,35.0,29.94,SSE,158,2.0,3.0,23,0.00,,,0.00,,2013-10-14 00:52:00,
2013-10-13 18:11:00,74.0,35.0,29.94,SSE,158,0.0,2.0,24,0.00,,,0.00,,2013-10-14 01:11:00,
2013-10-13 18:21:00,74.0,35.0,29.94,SSE,158,0.0,2.0,24,0.00,,,0.00,,2013-10-14 01:21:00,
2013-10-13 18:42:00,72.0,35.0,29.95,ESE,113,0.0,0.0,26,0.00,,,0.00,,2013-10-14 01:42:00,
2013-10-13 18:52:00,72.0,36.0,29.95,ESE,113,0.0,0.0,27,0.00,,,0.00,,2013-10-14 01:52:00,
2013-10-13 19:11:00,71.0,36.0,29.96,SE,135,0.0,0.0,28,0.00,,,0.00,,2013-10-14 02:11:00,
2013-10-13 19:21:00,69.0,35.0,29.96,SE,135,0.0,0.0,28,0.00,,,0.00,,2013-10-14 02:21:00,
2013-10-13 19:42:00,69.0,36.0,29.97,SE,135,0.0,0.0,30,0.00,,,0.00,,2013-10-14 02:42:00,
2013-10-13 19:52:00,67.0,35.0,29.97,SE,135,0.0,0.0,31,0.00,,,0.00,,2013-10-14 02:52:00,
2013-10-13 20:12:00,66.0,35.0,29.97,SE,135,0.0,0.0,32,0.00,,,0.00,,2013-10-14 03:12:00,
2013-10-13 20:22:00,66.0,35.0,29.97,SE,135,0.0,0.0,32,0.00,,,0.00,,2013-10-14 03:22:00,
2013-10-13 20:44:00,64.0,35.0,29.97,SE,135,0.0,0.0,34,0.00,,,0.00,,2013-10-14 03:44:00,
2013-10-13 20:55:00,64.0,35.0,29.97,SE,135,0.0,0.0,34,0.00,,,0.00,,2013-10-14 03:55:00,
2013-10-13 21:14:00,61.0,35.0,29.98,SE,135,0.0,0.0,37,0.00,,,0.00,,2013-10-14 04:14:00,
2013-10-13 21:24:00,61.0,35.0,29.98,SE,135,0.0,0.0,37,0.00,,,0.00,,2013-10-14 04:24:00,
2013-10-13 21:43:00,60.0,36.0,29.99,SE,135,0.0,0.0,40,0.00,,,0.00,,2013-10-14 04:43:00,
2013-10-13 21:54:00,60.0,36.0,29.99,SE,135,0.0,0.0,40,0.00,,,0.00,,2013-10-14 04:54:00,
2013-10-13 22:03:00,60.0,36.0,29.99,SE,135,0.0,0.0,40,0.00,,,0.00,,2013-10-14 05:03:00,
2013-10-13 22:12:00,60.0,36.0,29.99,SE,135,0.0,0.0,40,0.00,,,0.00,,2013-10-14 05:12:00,
2013-10-13 22:23:00,57.0,35.0,29.99,SE,135,0.0,0.0,43,0.00,,,0.00,,2013-10-14 05:23:00,
2013-10-13 22:34:00,57.0,35.0,29.99,SE,135,0.0,0.0,43,0.00,,,0.00,,2013-10-14 05:34:00,
2013-10-13 22:43:00,57.0,35.0,29.99,SE,135,0.0,0.0,43,0.00,,,0.00,,2013-10-14 05:43:00,
2013-10-13 22:52:00,56.0,35.0,30.00,SE,135,0.0,0.0,45,0.00,,,0.00,,2013-10-14 05:52:00,
2013-10-13 23:12:00,55.0,35.0,29.99,SE,135,0.0,0.0,46,0.00,,,0.00,,2013-10-14 06:12:00,
2013-10-13 23:22:00,55.0,35.0,29.99,SE,135,0.0,0.0,46,0.00,,,0.00,,2013-10-14 06:22:00,
2013-10-13 23:52:00,54.0,35.0,29.99,SE,135,0.0,0.0,48,0.00,,,0.00,,2013-10-14 06:52:00,